COSMOS 1275 DEB, 12690

Orbit data source: Space-Track

COSMOS 1275 DEB, 12690 is space debris in LEO originally from a launch on Thu, 04 Jun 1981 UTC launched from the Plesetsk Missile And Space Complex (PKMTR). Debris objects in space refer to the collection of defunct objects orbiting the Earth. Examples of debris include non-operational satellites, rocket bodies, and fragments generated from explosions, collisions, or faulty payload assembly.

Loading next visibility...
Identifier
12690, 1981-053AJ
Orbit
LEO
Country
Flag of CISCIS
Related business
Manufacturer
Unknown
Mission
Spacecraft
Bus & Motor
Unknown
Mass
Unknown
Launch date (UTC)
1981-06-04 (45 years ago)
Launch vehicle
Unknown
Launch site
Plesetsk Missile And Space Complex (PKMTR)
Object type
Payload
Rocket body
Debris
Shape & HBR
Unknown shape, 0.3 m
Radar Cross Section
Medium (>0.1 m² and <1 m²)

Expand to show TLE details & history
Last TLE update: 1 day ago

TLE from 1 day ago
0 COSMOS 1275 DEB
1 12690U 81053AJ  26262.39507245  .00000785  00000-0  64228-3 0  9993
2 12690  82.9483 263.4184 0089546 202.0552 228.3968 13.86590383257187
Epoch: 2026-09-19T09:28Z
TLE epoch observation values (Epoch: 2026-09-19T09:28:54.259Z)
Latitude
68.62733°
Longitude
141.21593°
Altitude
996.332 km
Speed
7.338 km/s
True Right ascension
18h 46m 59s
True Declination
68° 30' 51"
Sunlit
Object was in daylight at epoch
Visualization orbit readout
Latitude
Unknown
Longitude
Unknown
Altitude
Unknown
Speed
Unknown
Apparent Right ascension
Unknown
Apparent Declination
Unknown
Sunlit
N/A
Visualization observer readout
Local Sidereal Time
03:35:20
Azimuth
Unknown
Elevation
Unknown
Doppler factor
Unknown
Orbital elements
Apogee altitude
1,003.247 km
Perigee altitude
872.226 km
Semi-major axis
7,315.873 km
Eccentricity
0.00895
Inclination
82.9483°
RAAN
263.4184°
Arg. of periapsis
202.0552°
True anomaly
227.63519°
Mean anomaly
228.3968°
Eccentric anomaly
228.01543°
Mean motion
3.46852 °/min
Orbital period
103.79 mins
BSTAR
0.00064228
Loading maneuver chart data...
Computing Atmospheric mass density...
Loading historical data...
Loading historical data...
Loading historical data...
Loading historical data...
Loading historical data...
Loading historical data...
Loading historical data...

Documentation

Showing up to 5 results
|